Year,Month,Day,Hour,Minute,Value (Times are PST for temperature in C)
2017,08,04,00,00,16.70
2017,08,04,00,01,16.70
2017,08,04,00,02,16.70
2017,08,04,00,03,16.70
2017,08,04,00,04,16.70
2017,08,04,00,05,16.70
2017,08,04,00,06,16.70
2017,08,04,00,07,16.70
2017,08,04,00,08,16.70
2017,08,04,00,09,16.70
2017,08,04,00,10,16.70
2017,08,04,00,11,16.70
2017,08,04,00,12,16.60
2017,08,04,00,13,16.60
2017,08,04,00,14,16.70
2017,08,04,00,15,16.70
2017,08,04,00,16,16.70
2017,08,04,00,17,16.70
2017,08,04,00,18,16.70
2017,08,04,00,19,16.70
2017,08,04,00,20,16.80
2017,08,04,00,21,16.80
2017,08,04,00,22,16.90
2017,08,04,00,23,16.90
2017,08,04,00,24,17.00
2017,08,04,00,25,17.00
2017,08,04,00,26,17.00
2017,08,04,00,27,17.10
2017,08,04,00,28,17.10
2017,08,04,00,29,17.20
2017,08,04,00,30,17.20
2017,08,04,00,31,17.20
2017,08,04,00,32,17.20
2017,08,04,00,33,17.30
2017,08,04,00,34,17.30
2017,08,04,00,35,17.30
2017,08,04,00,36,17.40
2017,08,04,00,37,17.40
2017,08,04,00,38,17.40
2017,08,04,00,39,17.40
2017,08,04,00,40,17.50
2017,08,04,00,41,17.50
2017,08,04,00,42,17.50
2017,08,04,00,43,17.60
2017,08,04,00,44,17.60
2017,08,04,00,45,17.60
2017,08,04,00,46,17.60
2017,08,04,00,47,17.60
2017,08,04,00,48,17.60
2017,08,04,00,49,17.60
2017,08,04,00,50,17.60
2017,08,04,00,51,17.60
2017,08,04,00,52,17.50
2017,08,04,00,53,17.40
2017,08,04,00,54,17.40
2017,08,04,00,55,17.40
2017,08,04,00,56,17.30
2017,08,04,00,57,17.30
2017,08,04,00,58,17.30
2017,08,04,00,59,17.20
2017,08,04,01,00,17.20
2017,08,04,01,01,17.20
2017,08,04,01,02,17.10
2017,08,04,01,03,17.10
2017,08,04,01,04,17.10
2017,08,04,01,05,17.00
2017,08,04,01,06,17.00
2017,08,04,01,07,17.00
2017,08,04,01,08,16.90
2017,08,04,01,09,16.90
2017,08,04,01,10,16.80
2017,08,04,01,11,16.80
2017,08,04,01,12,16.80
2017,08,04,01,13,16.80
2017,08,04,01,14,16.80
2017,08,04,01,15,16.80
2017,08,04,01,16,16.80
2017,08,04,01,17,16.80
2017,08,04,01,18,16.80
2017,08,04,01,19,16.80
2017,08,04,01,20,16.80
2017,08,04,01,21,16.90
2017,08,04,01,22,16.90
2017,08,04,01,23,16.90
2017,08,04,01,24,17.00
2017,08,04,01,25,17.00
2017,08,04,01,26,17.10
2017,08,04,01,27,17.20
2017,08,04,01,28,17.20
2017,08,04,01,29,17.30
2017,08,04,01,30,17.30
2017,08,04,01,31,17.30
2017,08,04,01,32,17.40
2017,08,04,01,33,17.40
2017,08,04,01,34,17.40
2017,08,04,01,35,17.50
2017,08,04,01,36,17.50
2017,08,04,01,37,17.60
2017,08,04,01,38,17.60
2017,08,04,01,39,17.60
2017,08,04,01,40,17.60
2017,08,04,01,41,17.60
2017,08,04,01,42,17.60
2017,08,04,01,43,17.70
2017,08,04,01,44,17.70
2017,08,04,01,45,17.70
2017,08,04,01,46,17.70
2017,08,04,01,47,17.70
2017,08,04,01,48,17.70
2017,08,04,01,49,17.70
2017,08,04,01,50,17.80
2017,08,04,01,51,17.80
2017,08,04,01,52,17.80
2017,08,04,01,53,17.80
2017,08,04,01,54,17.70
2017,08,04,01,55,17.70
2017,08,04,01,56,17.70
2017,08,04,01,57,17.70
2017,08,04,01,58,17.70
2017,08,04,01,59,17.70
2017,08,04,02,00,17.70
2017,08,04,02,01,17.70
2017,08,04,02,02,17.70
2017,08,04,02,03,17.70
2017,08,04,02,04,17.60
2017,08,04,02,05,17.60
2017,08,04,02,06,17.60
2017,08,04,02,07,17.60
2017,08,04,02,08,17.60
2017,08,04,02,09,17.50
2017,08,04,02,10,17.50
2017,08,04,02,11,17.50
2017,08,04,02,12,17.50
2017,08,04,02,13,17.50
2017,08,04,02,14,17.40
2017,08,04,02,15,17.40
2017,08,04,02,16,17.40
2017,08,04,02,17,17.40
2017,08,04,02,18,17.40
2017,08,04,02,19,17.40
2017,08,04,02,20,17.40
2017,08,04,02,21,17.40
2017,08,04,02,22,17.40
2017,08,04,02,23,17.40
2017,08,04,02,24,17.40
2017,08,04,02,25,17.40
2017,08,04,02,26,17.40
2017,08,04,02,27,17.40
2017,08,04,02,28,17.40
2017,08,04,02,29,17.40
2017,08,04,02,30,17.30
2017,08,04,02,31,17.30
2017,08,04,02,32,17.30
2017,08,04,02,33,17.30
2017,08,04,02,34,17.30
2017,08,04,02,35,17.30
2017,08,04,02,36,17.30
2017,08,04,02,37,17.30
2017,08,04,02,38,17.20
2017,08,04,02,39,17.20
2017,08,04,02,40,17.20
2017,08,04,02,41,17.20
2017,08,04,02,42,17.20
2017,08,04,02,43,17.20
2017,08,04,02,44,17.20
2017,08,04,02,45,17.20
2017,08,04,02,46,17.20
2017,08,04,02,47,17.20
2017,08,04,02,48,17.20
2017,08,04,02,49,17.20
2017,08,04,02,50,17.10
2017,08,04,02,51,17.10
2017,08,04,02,52,17.10
2017,08,04,02,53,17.10
2017,08,04,02,54,17.10
2017,08,04,02,55,17.10
2017,08,04,02,56,17.10
2017,08,04,02,57,17.00
2017,08,04,02,58,17.00
2017,08,04,02,59,17.00
2017,08,04,03,00,16.90
2017,08,04,03,01,16.90
2017,08,04,03,02,16.90
2017,08,04,03,03,16.90
2017,08,04,03,04,16.90
2017,08,04,03,05,16.80
2017,08,04,03,06,16.80
2017,08,04,03,07,16.80
2017,08,04,03,08,16.80
2017,08,04,03,09,16.80
2017,08,04,03,10,16.80
2017,08,04,03,11,16.80
2017,08,04,03,12,16.80
2017,08,04,03,13,16.80
2017,08,04,03,14,16.80
2017,08,04,03,15,16.80
2017,08,04,03,16,16.80
2017,08,04,03,17,16.80
2017,08,04,03,18,16.70
2017,08,04,03,19,16.70
2017,08,04,03,20,16.70
2017,08,04,03,21,16.70
2017,08,04,03,22,16.70
2017,08,04,03,23,16.70
2017,08,04,03,24,16.70
2017,08,04,03,25,16.70
2017,08,04,03,26,16.70
2017,08,04,03,27,16.70
2017,08,04,03,28,16.70
2017,08,04,03,29,16.70
2017,08,04,03,30,16.60
2017,08,04,03,31,16.60
2017,08,04,03,32,16.60
2017,08,04,03,33,16.60
2017,08,04,03,34,16.60
2017,08,04,03,35,16.60
2017,08,04,03,36,16.60
2017,08,04,03,37,16.60
2017,08,04,03,38,16.50
2017,08,04,03,39,16.50
2017,08,04,03,40,16.50
2017,08,04,03,41,16.50
2017,08,04,03,42,16.50
2017,08,04,03,43,16.50
2017,08,04,03,44,16.40
2017,08,04,03,45,16.40
2017,08,04,03,46,16.40
2017,08,04,03,47,16.40
2017,08,04,03,48,16.40
2017,08,04,03,49,16.40
2017,08,04,03,50,16.40
2017,08,04,03,51,16.40
2017,08,04,03,52,16.30
2017,08,04,03,53,16.30
2017,08,04,03,54,16.30
2017,08,04,03,55,16.30
2017,08,04,03,56,16.30
2017,08,04,03,57,16.30
2017,08,04,03,58,16.30
2017,08,04,03,59,16.30
2017,08,04,04,00,16.30
2017,08,04,04,01,16.30
2017,08,04,04,02,16.30
2017,08,04,04,03,16.30
2017,08,04,04,04,16.30
2017,08,04,04,05,16.20
2017,08,04,04,06,16.20
2017,08,04,04,07,16.20
2017,08,04,04,08,16.20
2017,08,04,04,09,16.20
2017,08,04,04,10,16.20
2017,08,04,04,11,16.20
2017,08,04,04,12,16.10
2017,08,04,04,13,16.10
2017,08,04,04,14,16.10
2017,08,04,04,15,16.10
2017,08,04,04,16,16.10
2017,08,04,04,17,16.00
2017,08,04,04,18,16.00
2017,08,04,04,19,16.00
2017,08,04,04,20,16.00
2017,08,04,04,21,15.90
2017,08,04,04,22,15.90
2017,08,04,04,23,15.90
2017,08,04,04,24,15.90
2017,08,04,04,25,15.90
2017,08,04,04,26,15.90
2017,08,04,04,27,15.90
2017,08,04,04,28,15.80
2017,08,04,04,29,15.80
2017,08,04,04,30,15.80
2017,08,04,04,31,15.80
2017,08,04,04,32,15.80
2017,08,04,04,33,15.80
2017,08,04,04,34,15.80
2017,08,04,04,35,15.80
2017,08,04,04,36,15.80
2017,08,04,04,37,15.70
2017,08,04,04,38,15.70
2017,08,04,04,39,15.70
2017,08,04,04,40,15.70
2017,08,04,04,41,15.70
2017,08,04,04,42,15.70
2017,08,04,04,43,15.70
2017,08,04,04,44,15.70
2017,08,04,04,45,15.70
2017,08,04,04,46,15.70
2017,08,04,04,47,15.70
2017,08,04,04,48,15.70
2017,08,04,04,49,15.70
2017,08,04,04,50,15.60
2017,08,04,04,51,15.60
2017,08,04,04,52,15.60
2017,08,04,04,53,15.60
2017,08,04,04,54,15.60
2017,08,04,04,55,15.60
2017,08,04,04,56,15.60
2017,08,04,04,57,15.50
2017,08,04,04,58,15.50
2017,08,04,04,59,15.50
2017,08,04,05,00,15.50
2017,08,04,05,01,15.50
2017,08,04,05,02,15.50
2017,08,04,05,03,15.50
2017,08,04,05,04,15.50
2017,08,04,05,05,15.50
2017,08,04,05,06,15.50
2017,08,04,05,07,15.50
2017,08,04,05,08,15.50
2017,08,04,05,09,15.50
2017,08,04,05,10,15.50
2017,08,04,05,11,15.40
2017,08,04,05,12,15.40
2017,08,04,05,13,15.40
2017,08,04,05,14,15.40
2017,08,04,05,15,15.40
2017,08,04,05,16,15.40
2017,08,04,05,17,15.40
2017,08,04,05,18,15.40
2017,08,04,05,19,15.40
2017,08,04,05,20,15.40
2017,08,04,05,21,15.40
2017,08,04,05,22,15.40
2017,08,04,05,23,15.40
2017,08,04,05,24,15.40
2017,08,04,05,25,15.40
2017,08,04,05,26,15.40
2017,08,04,05,27,15.40
2017,08,04,05,28,15.40
2017,08,04,05,29,15.40
2017,08,04,05,30,15.40
2017,08,04,05,31,15.40
2017,08,04,05,32,15.40
2017,08,04,05,33,15.40
2017,08,04,05,34,15.40
2017,08,04,05,35,15.30
2017,08,04,05,36,15.30
2017,08,04,05,37,15.30
2017,08,04,05,38,15.30
2017,08,04,05,39,15.30
2017,08,04,05,40,15.30
2017,08,04,05,41,15.30
2017,08,04,05,42,15.30
2017,08,04,05,43,15.30
2017,08,04,05,44,15.20
2017,08,04,05,45,15.20
2017,08,04,05,46,15.20
2017,08,04,05,47,15.20
2017,08,04,05,48,15.20
2017,08,04,05,49,15.20
2017,08,04,05,50,15.20
2017,08,04,05,51,15.30
2017,08,04,05,52,15.30
2017,08,04,05,53,15.30
2017,08,04,05,54,15.30
2017,08,04,05,55,15.30
2017,08,04,05,56,15.30
2017,08,04,05,57,15.30
2017,08,04,05,58,15.30
2017,08,04,05,59,15.30
2017,08,04,06,00,15.40
2017,08,04,06,01,15.40
2017,08,04,06,02,15.40
2017,08,04,06,03,15.40
2017,08,04,06,04,15.40
2017,08,04,06,05,15.40
2017,08,04,06,06,15.40
2017,08,04,06,07,15.40
2017,08,04,06,08,15.40
2017,08,04,06,09,15.40
2017,08,04,06,10,15.40
2017,08,04,06,11,15.40
2017,08,04,06,12,15.50
2017,08,04,06,13,15.50
2017,08,04,06,14,15.50
2017,08,04,06,15,15.50
2017,08,04,06,16,15.50
2017,08,04,06,17,15.50
2017,08,04,06,18,15.50
2017,08,04,06,19,15.50
2017,08,04,06,20,15.50
2017,08,04,06,21,15.60
2017,08,04,06,22,15.60
2017,08,04,06,23,15.60
2017,08,04,06,24,15.60
2017,08,04,06,25,15.60
2017,08,04,06,26,15.60
2017,08,04,06,27,15.60
2017,08,04,06,28,15.70
2017,08,04,06,29,15.70
2017,08,04,06,30,15.70
2017,08,04,06,31,15.70
2017,08,04,06,32,15.70
2017,08,04,06,33,15.70
2017,08,04,06,34,15.70
2017,08,04,06,35,15.70
2017,08,04,06,36,15.70
2017,08,04,06,37,15.70
2017,08,04,06,38,15.70
2017,08,04,06,39,15.80
2017,08,04,06,40,15.80
2017,08,04,06,41,15.80
2017,08,04,06,42,15.80
2017,08,04,06,43,15.80
2017,08,04,06,44,15.80
2017,08,04,06,45,15.90
2017,08,04,06,46,15.90
2017,08,04,06,47,15.90
2017,08,04,06,48,16.00
2017,08,04,06,49,16.00
2017,08,04,06,50,16.00
2017,08,04,06,51,16.10
2017,08,04,06,52,16.10
2017,08,04,06,53,16.10
2017,08,04,06,54,16.20
2017,08,04,06,55,16.20
2017,08,04,06,56,16.20
2017,08,04,06,57,16.30
2017,08,04,06,58,16.30
2017,08,04,06,59,16.30
2017,08,04,07,00,16.40
2017,08,04,07,01,16.40
2017,08,04,07,02,16.40
2017,08,04,07,03,16.50
2017,08,04,07,04,16.50
2017,08,04,07,05,16.50
2017,08,04,07,06,16.60
2017,08,04,07,07,16.60
2017,08,04,07,08,16.60
2017,08,04,07,09,16.70
2017,08,04,07,10,16.70
2017,08,04,07,11,16.70
2017,08,04,07,12,16.80
2017,08,04,07,13,16.80
2017,08,04,07,14,16.80
2017,08,04,07,15,16.90
2017,08,04,07,16,16.90
2017,08,04,07,17,16.90
2017,08,04,07,18,16.90
2017,08,04,07,19,17.00
2017,08,04,07,20,17.00
2017,08,04,07,21,17.10
2017,08,04,07,22,17.10
2017,08,04,07,23,17.10
2017,08,04,07,24,17.10
2017,08,04,07,25,17.10
2017,08,04,07,26,17.10
2017,08,04,07,27,17.20
2017,08,04,07,28,17.20
2017,08,04,07,29,17.20
2017,08,04,07,30,17.20
2017,08,04,07,31,17.20
2017,08,04,07,32,17.20
2017,08,04,07,33,17.20
2017,08,04,07,34,17.20
2017,08,04,07,35,17.10
2017,08,04,07,36,17.10
2017,08,04,07,37,17.10
2017,08,04,07,38,17.10
2017,08,04,07,39,17.10
2017,08,04,07,40,17.10
2017,08,04,07,41,17.10
2017,08,04,07,42,17.10
2017,08,04,07,43,17.10
2017,08,04,07,44,17.10
2017,08,04,07,45,17.00
2017,08,04,07,46,17.00
2017,08,04,07,47,17.00
2017,08,04,07,48,17.00
2017,08,04,07,49,16.90
2017,08,04,07,50,16.90
2017,08,04,07,51,16.90
2017,08,04,07,52,16.90
2017,08,04,07,53,16.90
2017,08,04,07,54,16.90
2017,08,04,07,55,16.80
2017,08,04,07,56,16.90
2017,08,04,07,57,16.90
2017,08,04,07,58,16.90
2017,08,04,07,59,16.90
2017,08,04,08,00,16.90
2017,08,04,08,01,16.90
2017,08,04,08,02,16.90
2017,08,04,08,03,16.90
2017,08,04,08,04,16.90
2017,08,04,08,05,16.90
2017,08,04,08,06,16.90
2017,08,04,08,07,17.00
2017,08,04,08,08,17.00
2017,08,04,08,09,17.10
2017,08,04,08,10,17.10
2017,08,04,08,11,17.10
2017,08,04,08,12,17.10
2017,08,04,08,13,17.20
2017,08,04,08,14,17.20
2017,08,04,08,15,17.20
2017,08,04,08,16,17.20
2017,08,04,08,17,17.30
2017,08,04,08,18,17.30
2017,08,04,08,19,17.30
2017,08,04,08,20,17.30
2017,08,04,08,21,17.30
2017,08,04,08,22,17.30
2017,08,04,08,23,17.30
2017,08,04,08,24,17.30
2017,08,04,08,25,17.30
2017,08,04,08,26,17.40
2017,08,04,08,27,17.40
2017,08,04,08,28,17.40
2017,08,04,08,29,17.40
2017,08,04,08,30,17.40
2017,08,04,08,31,17.50
2017,08,04,08,32,17.50
2017,08,04,08,33,17.50
2017,08,04,08,34,17.50
2017,08,04,08,35,17.60
2017,08,04,08,36,17.60
2017,08,04,08,37,17.60
2017,08,04,08,38,17.60
2017,08,04,08,39,17.70
2017,08,04,08,40,17.70
2017,08,04,08,41,17.70
2017,08,04,08,42,17.80
2017,08,04,08,43,17.80
2017,08,04,08,44,17.80
2017,08,04,08,45,17.90
2017,08,04,08,46,17.90
2017,08,04,08,47,18.00
2017,08,04,08,48,18.00
2017,08,04,08,49,18.10
2017,08,04,08,50,18.10
2017,08,04,08,51,18.10
2017,08,04,08,52,18.10
2017,08,04,08,53,18.20
2017,08,04,08,54,18.20
2017,08,04,08,55,18.30
2017,08,04,08,56,18.30
2017,08,04,08,57,18.40
2017,08,04,08,58,18.40
2017,08,04,08,59,18.50
2017,08,04,09,00,18.50
2017,08,04,09,01,18.60
2017,08,04,09,02,18.60
2017,08,04,09,03,18.60
2017,08,04,09,04,18.50
2017,08,04,09,05,18.50
2017,08,04,09,06,18.50
2017,08,04,09,07,18.50
2017,08,04,09,08,18.60
2017,08,04,09,09,18.60
2017,08,04,09,10,18.60
2017,08,04,09,11,18.60
2017,08,04,09,12,18.60
2017,08,04,09,13,18.60
2017,08,04,09,14,18.60
2017,08,04,09,15,18.60
2017,08,04,09,16,18.60
2017,08,04,09,17,18.60
2017,08,04,09,18,18.60
2017,08,04,09,19,18.60
2017,08,04,09,20,18.60
2017,08,04,09,21,18.70
2017,08,04,09,22,18.70
2017,08,04,09,23,18.70
2017,08,04,09,24,18.70
2017,08,04,09,25,18.70
2017,08,04,09,26,18.80
2017,08,04,09,27,18.80
2017,08,04,09,28,18.80
2017,08,04,09,29,18.90
2017,08,04,09,30,18.90
2017,08,04,09,31,19.00
2017,08,04,09,32,19.00
2017,08,04,09,33,19.10
2017,08,04,09,34,19.10
2017,08,04,09,35,19.20
2017,08,04,09,36,19.10
2017,08,04,09,37,19.10
2017,08,04,09,38,19.10
2017,08,04,09,39,19.00
2017,08,04,09,40,19.00
2017,08,04,09,41,19.00
2017,08,04,09,42,19.00
2017,08,04,09,43,19.00
2017,08,04,09,44,19.10
2017,08,04,09,45,19.10
2017,08,04,09,46,19.10
2017,08,04,09,47,19.10
2017,08,04,09,48,19.20
2017,08,04,09,49,19.20
2017,08,04,09,50,19.10
2017,08,04,09,51,19.10
2017,08,04,09,52,19.10
2017,08,04,09,53,19.10
2017,08,04,09,54,19.10
2017,08,04,09,55,19.00
2017,08,04,09,56,19.00
2017,08,04,09,57,18.90
2017,08,04,09,58,18.90
2017,08,04,09,59,18.90
2017,08,04,10,00,18.80
2017,08,04,10,01,18.90
2017,08,04,10,02,18.90
2017,08,04,10,03,18.90
2017,08,04,10,04,18.90
2017,08,04,10,05,18.90
2017,08,04,10,06,18.90
2017,08,04,10,07,18.90
2017,08,04,10,08,18.90
2017,08,04,10,09,18.90
2017,08,04,10,10,18.90
2017,08,04,10,11,18.90
2017,08,04,10,12,18.90
2017,08,04,10,13,18.90
2017,08,04,10,14,19.00
2017,08,04,10,15,19.00
2017,08,04,10,16,19.10
2017,08,04,10,17,19.10
2017,08,04,10,18,19.00
2017,08,04,10,19,19.00
2017,08,04,10,20,19.10
2017,08,04,10,21,19.10
2017,08,04,10,22,19.10
2017,08,04,10,23,19.20
2017,08,04,10,24,19.20
2017,08,04,10,25,19.20
2017,08,04,10,26,19.20
2017,08,04,10,27,19.30
2017,08,04,10,28,19.40
2017,08,04,10,29,19.40
2017,08,04,10,30,19.50
2017,08,04,10,31,19.50
2017,08,04,10,32,19.50
2017,08,04,10,33,19.50
2017,08,04,10,34,19.60
2017,08,04,10,35,19.60
2017,08,04,10,36,19.70
2017,08,04,10,37,19.80
2017,08,04,10,38,19.80
2017,08,04,10,39,19.90
2017,08,04,10,40,19.90
2017,08,04,10,41,20.00
2017,08,04,10,42,20.00
2017,08,04,10,43,20.10
2017,08,04,10,44,20.10
2017,08,04,10,45,20.10
2017,08,04,10,46,20.00
2017,08,04,10,47,19.90
2017,08,04,10,48,19.80
2017,08,04,10,49,19.80
2017,08,04,10,50,19.80
2017,08,04,10,51,19.80
2017,08,04,10,52,19.90
2017,08,04,10,53,20.00
2017,08,04,10,54,20.00
2017,08,04,10,55,20.10
2017,08,04,10,56,20.10
2017,08,04,10,57,20.10
2017,08,04,10,58,20.10
2017,08,04,10,59,20.10
2017,08,04,11,00,20.10
2017,08,04,11,01,20.10
2017,08,04,11,02,20.10
2017,08,04,11,03,20.00
2017,08,04,11,04,19.80
2017,08,04,11,05,19.70
2017,08,04,11,06,19.70
2017,08,04,11,07,19.60
2017,08,04,11,08,19.60
2017,08,04,11,09,19.70
2017,08,04,11,10,19.70
2017,08,04,11,11,19.70
2017,08,04,11,12,19.70
2017,08,04,11,13,19.60
2017,08,04,11,14,19.70
2017,08,04,11,15,19.70
2017,08,04,11,16,19.80
2017,08,04,11,17,19.80
2017,08,04,11,18,19.80
2017,08,04,11,19,19.90
2017,08,04,11,20,20.00
2017,08,04,11,21,20.10
2017,08,04,11,22,20.10
2017,08,04,11,23,20.20
2017,08,04,11,24,20.30
2017,08,04,11,25,20.30
2017,08,04,11,26,20.20
2017,08,04,11,27,20.20
2017,08,04,11,28,20.10
2017,08,04,11,29,20.00
2017,08,04,11,30,20.00
2017,08,04,11,31,20.00
2017,08,04,11,32,20.10
2017,08,04,11,33,20.10
2017,08,04,11,34,20.10
2017,08,04,11,35,20.20
2017,08,04,11,36,20.20
2017,08,04,11,37,20.30
2017,08,04,11,38,20.30
2017,08,04,11,39,20.30
2017,08,04,11,40,20.30
2017,08,04,11,41,20.30
2017,08,04,11,42,20.20
2017,08,04,11,43,20.20
2017,08,04,11,44,20.10
2017,08,04,11,45,20.00
2017,08,04,11,46,20.00
2017,08,04,11,47,19.90
2017,08,04,11,48,19.90
2017,08,04,11,49,19.90
2017,08,04,11,50,19.90
2017,08,04,11,51,19.90
2017,08,04,11,52,20.00
2017,08,04,11,53,20.10
2017,08,04,11,54,20.10
2017,08,04,11,55,20.20
2017,08,04,11,56,20.20
2017,08,04,11,57,20.30
2017,08,04,11,58,20.30
2017,08,04,11,59,20.20
2017,08,04,12,00,20.10
2017,08,04,12,01,20.00
2017,08,04,12,02,19.80
2017,08,04,12,03,19.60
2017,08,04,12,04,19.50
2017,08,04,12,05,19.50
2017,08,04,12,06,19.60
2017,08,04,12,07,19.70
2017,08,04,12,08,19.80
2017,08,04,12,09,19.90
2017,08,04,12,10,20.00
2017,08,04,12,11,20.10
2017,08,04,12,12,20.10
2017,08,04,12,13,20.10
2017,08,04,12,14,20.20
2017,08,04,12,15,20.20
2017,08,04,12,16,20.20
2017,08,04,12,17,20.20
2017,08,04,12,18,20.10
2017,08,04,12,19,20.10
2017,08,04,12,20,20.00
2017,08,04,12,21,19.90
2017,08,04,12,22,19.90
2017,08,04,12,23,19.90
2017,08,04,12,24,19.90
2017,08,04,12,25,19.90
2017,08,04,12,26,19.90
2017,08,04,12,27,19.90
2017,08,04,12,28,19.90
2017,08,04,12,29,19.90
2017,08,04,12,30,20.00
2017,08,04,12,31,20.10
2017,08,04,12,32,20.10
2017,08,04,12,33,20.10
2017,08,04,12,34,20.10
2017,08,04,12,35,20.10
2017,08,04,12,36,20.10
2017,08,04,12,37,20.10
2017,08,04,12,38,20.10
2017,08,04,12,39,20.10
2017,08,04,12,40,20.10
2017,08,04,12,41,20.10
2017,08,04,12,42,20.20
2017,08,04,12,43,20.30
2017,08,04,12,44,20.40
2017,08,04,12,45,20.60
2017,08,04,12,46,20.60
2017,08,04,12,47,20.70
2017,08,04,12,48,20.70
2017,08,04,12,49,20.80
2017,08,04,12,50,20.80
2017,08,04,12,51,20.80
2017,08,04,12,52,20.80
2017,08,04,12,53,20.70
2017,08,04,12,54,20.60
2017,08,04,12,55,20.60
2017,08,04,12,56,20.50
2017,08,04,12,57,20.30
2017,08,04,12,58,20.10
2017,08,04,12,59,20.10
2017,08,04,13,00,20.10
2017,08,04,13,01,20.10
2017,08,04,13,02,20.00
2017,08,04,13,03,20.00
2017,08,04,13,04,19.90
2017,08,04,13,05,19.90
2017,08,04,13,06,19.90
2017,08,04,13,07,19.80
2017,08,04,13,08,19.70
2017,08,04,13,09,19.60
2017,08,04,13,10,19.40
2017,08,04,13,11,19.30
2017,08,04,13,12,19.30
2017,08,04,13,13,19.30
2017,08,04,13,14,19.30
2017,08,04,13,15,19.30
2017,08,04,13,16,19.40
2017,08,04,13,17,19.50
2017,08,04,13,18,19.50
2017,08,04,13,19,19.60
2017,08,04,13,20,19.60
2017,08,04,13,21,19.60
2017,08,04,13,22,19.60
2017,08,04,13,23,19.50
2017,08,04,13,24,19.40
2017,08,04,13,25,19.30
2017,08,04,13,26,19.30
2017,08,04,13,27,19.30
2017,08,04,13,28,19.30
2017,08,04,13,29,19.40
2017,08,04,13,30,19.50
2017,08,04,13,31,19.50
2017,08,04,13,32,19.50
2017,08,04,13,33,19.40
2017,08,04,13,34,19.40
2017,08,04,13,35,19.30
2017,08,04,13,36,19.30
2017,08,04,13,37,19.30
2017,08,04,13,38,19.30
2017,08,04,13,39,19.30
2017,08,04,13,40,19.30
2017,08,04,13,41,19.30
2017,08,04,13,42,19.30
2017,08,04,13,43,19.20
2017,08,04,13,44,19.20
2017,08,04,13,45,19.20
2017,08,04,13,46,19.20
2017,08,04,13,47,19.20
2017,08,04,13,48,19.20
2017,08,04,13,49,19.10
2017,08,04,13,50,19.00
2017,08,04,13,51,19.00
2017,08,04,13,52,19.00
2017,08,04,13,53,19.00
2017,08,04,13,54,19.00
2017,08,04,13,55,18.90
2017,08,04,13,56,18.80
2017,08,04,13,57,18.80
2017,08,04,13,58,18.70
2017,08,04,13,59,18.80
2017,08,04,14,00,18.70
2017,08,04,14,01,18.80
2017,08,04,14,02,18.80
2017,08,04,14,03,18.90
2017,08,04,14,04,18.90
2017,08,04,14,05,18.90
2017,08,04,14,06,18.90
2017,08,04,14,07,18.90
2017,08,04,14,08,18.80
2017,08,04,14,09,18.80
2017,08,04,14,10,18.70
2017,08,04,14,11,18.60
2017,08,04,14,12,18.60
2017,08,04,14,13,18.50
2017,08,04,14,14,18.50
2017,08,04,14,15,18.50
2017,08,04,14,16,18.50
2017,08,04,14,17,18.60
2017,08,04,14,18,18.60
2017,08,04,14,19,18.60
2017,08,04,14,20,18.70
2017,08,04,14,21,18.70
2017,08,04,14,22,18.70
2017,08,04,14,23,18.70
2017,08,04,14,24,18.70
2017,08,04,14,25,18.70
2017,08,04,14,26,18.60
2017,08,04,14,27,18.60
2017,08,04,14,28,18.60
2017,08,04,14,29,18.60
2017,08,04,14,30,18.60
2017,08,04,14,31,18.60
2017,08,04,14,32,18.60
2017,08,04,14,33,18.60
2017,08,04,14,34,18.60
2017,08,04,14,35,18.70
2017,08,04,14,36,18.80
2017,08,04,14,37,18.80
2017,08,04,14,38,18.80
2017,08,04,14,39,18.80
2017,08,04,14,40,18.80
2017,08,04,14,41,18.70
2017,08,04,14,42,18.70
2017,08,04,14,43,18.70
2017,08,04,14,44,18.70
2017,08,04,14,45,18.80
2017,08,04,14,46,18.90
2017,08,04,14,47,19.00
2017,08,04,14,48,19.10
2017,08,04,14,49,19.10
2017,08,04,14,50,19.10
2017,08,04,14,51,19.00
2017,08,04,14,52,19.00
2017,08,04,14,53,19.00
2017,08,04,14,54,19.00
2017,08,04,14,55,19.00
2017,08,04,14,56,19.00
2017,08,04,14,57,18.90
2017,08,04,14,58,19.00
2017,08,04,14,59,19.00
2017,08,04,15,00,19.00
2017,08,04,15,01,19.10
2017,08,04,15,02,19.10
2017,08,04,15,03,19.20
2017,08,04,15,04,19.20
2017,08,04,15,05,19.10
2017,08,04,15,06,19.10
2017,08,04,15,07,19.00
2017,08,04,15,08,19.00
2017,08,04,15,09,19.00
2017,08,04,15,10,19.00
2017,08,04,15,11,19.00
2017,08,04,15,12,19.00
2017,08,04,15,13,19.10
2017,08,04,15,14,19.10
2017,08,04,15,15,19.10
2017,08,04,15,16,19.10
2017,08,04,15,17,19.00
2017,08,04,15,18,19.00
2017,08,04,15,19,19.00
2017,08,04,15,20,19.00
2017,08,04,15,21,19.00
2017,08,04,15,22,19.00
2017,08,04,15,23,19.00
2017,08,04,15,24,19.00
2017,08,04,15,25,19.00
2017,08,04,15,26,19.00
2017,08,04,15,27,19.00
2017,08,04,15,28,19.10
2017,08,04,15,29,19.10
2017,08,04,15,30,19.10
2017,08,04,15,31,19.10
2017,08,04,15,32,19.00
2017,08,04,15,33,19.00
2017,08,04,15,34,18.90
2017,08,04,15,35,18.90
2017,08,04,15,36,18.80
2017,08,04,15,37,18.80
2017,08,04,15,38,18.70
2017,08,04,15,39,18.60
2017,08,04,15,40,18.50
2017,08,04,15,41,18.50
2017,08,04,15,42,18.50
2017,08,04,15,43,18.50
2017,08,04,15,44,18.60
2017,08,04,15,45,18.70
2017,08,04,15,46,18.70
2017,08,04,15,47,18.80
2017,08,04,15,48,18.80
2017,08,04,15,49,18.80
2017,08,04,15,50,18.80
2017,08,04,15,51,18.90
2017,08,04,15,52,18.90
2017,08,04,15,53,18.90
2017,08,04,15,54,18.90
2017,08,04,15,55,18.80
2017,08,04,15,56,18.80
2017,08,04,15,57,18.80
2017,08,04,15,58,18.70
2017,08,04,15,59,18.70
2017,08,04,16,00,18.60
2017,08,04,16,01,18.50
2017,08,04,16,02,18.40
2017,08,04,16,03,18.30
2017,08,04,16,04,18.30
2017,08,04,16,05,18.20
2017,08,04,16,06,18.10
2017,08,04,16,07,18.00
2017,08,04,16,08,18.00
2017,08,04,16,09,18.00
2017,08,04,16,10,18.10
2017,08,04,16,11,18.10
2017,08,04,16,12,18.20
2017,08,04,16,13,18.20
2017,08,04,16,14,18.20
2017,08,04,16,15,18.30
2017,08,04,16,16,18.30
2017,08,04,16,17,18.30
2017,08,04,16,18,18.30
2017,08,04,16,19,18.30
2017,08,04,16,20,18.20
2017,08,04,16,21,18.20
2017,08,04,16,22,18.20
2017,08,04,16,23,18.30
2017,08,04,16,24,18.20
2017,08,04,16,25,18.20
2017,08,04,16,26,18.20
2017,08,04,16,27,18.20
2017,08,04,16,28,18.30
2017,08,04,16,29,18.30
2017,08,04,16,30,18.30
2017,08,04,16,31,18.30
2017,08,04,16,32,18.40
2017,08,04,16,33,18.40
2017,08,04,16,34,18.50
2017,08,04,16,35,18.50
2017,08,04,16,36,18.50
2017,08,04,16,37,18.50
2017,08,04,16,38,18.50
2017,08,04,16,39,18.50
2017,08,04,16,40,18.40
2017,08,04,16,41,18.40
2017,08,04,16,42,18.40
2017,08,04,16,43,18.30
2017,08,04,16,44,18.30
2017,08,04,16,45,18.20
2017,08,04,16,46,18.20
2017,08,04,16,47,18.10
2017,08,04,16,48,18.10
2017,08,04,16,49,18.10
2017,08,04,16,50,18.00
2017,08,04,16,51,18.00
2017,08,04,16,52,17.90
2017,08,04,16,53,17.80
2017,08,04,16,54,17.80
2017,08,04,16,55,17.70
2017,08,04,16,56,17.70
2017,08,04,16,57,17.70
2017,08,04,16,58,17.70
2017,08,04,16,59,17.70
2017,08,04,17,00,17.80
2017,08,04,17,01,17.80
2017,08,04,17,02,17.80
2017,08,04,17,03,17.80
2017,08,04,17,04,17.80
2017,08,04,17,05,17.80
2017,08,04,17,06,17.70
2017,08,04,17,07,17.70
2017,08,04,17,08,17.60
2017,08,04,17,09,17.60
2017,08,04,17,10,17.50
2017,08,04,17,11,17.50
2017,08,04,17,12,17.50
2017,08,04,17,13,17.50
2017,08,04,17,14,17.50
2017,08,04,17,15,17.60
2017,08,04,17,16,17.60
2017,08,04,17,17,17.70
2017,08,04,17,18,17.70
2017,08,04,17,19,17.70